Location: Unspecified
(41.1637°N, 24.2901°E)
Time: 16:44:25
(UTC+02:00)

X-37B - Pass Details

Date: 13 March 2021
Orbit: 380 x 394 km, 45.0° (Epoch: 07 April)

Event Time Altitude Azimuth Distance (km) Brightness Sun altitude
Rises 19:57:12 0° 271° (W) 2,273 5.5 -28.3°
Reaches altitude 10° 19:59:20 10° 279° (W) 1,421 4.3 -28.7°
Enters shadow 20:00:00 15° 283° (WNW) 1,171 3.8 -28.8°
